Location: Volkssternwarte_EN
(51.3230°N, 7.4010°E)
Time: 11:24:53
(UTC+01:00)

N. Korean satellite - Visible Passes

Search period start: 29 November 2022 00:00
Search period end: 09 December 2022 00:00
Orbit: 421 x 454 km, 97.3° (Epoch: 28 November)

Date Brightness Start Highest point End Pass type
(mag) Time Alt. Az. Time Alt. Az. Time Alt. Az.
29 Nov 6.3 06:09:50 10° N 06:13:16 73° WNW 06:16:40 10° SSW visible
30 Nov 7.9 05:31:17 10° NNE 05:34:30 37° E 05:37:42 10° SSE visible
30 Nov 7.8 07:04:18 10° NNW 07:06:48 19° WNW 07:09:18 10° WSW visible
30 Nov 9.1 17:38:24 10° SSW 17:41:12 24° W 17:44:02 10° NW visible
01 Dec 9.6 04:53:31 10° NE 04:55:29 14° E 04:57:27 10° SE visible
01 Dec 6.6 06:24:57 10° N 06:28:17 48° WNW 06:31:34 10° SSW visible
01 Dec 6.8 16:58:56 10° S 17:02:17 69° WSW 17:05:43 10° NNW visible
02 Dec 7.0 05:46:09 10° NNE 05:49:32 56° E 05:52:53 10° S visible
02 Dec 8.2 07:19:47 10° NNW 07:21:39 14° WNW 07:23:30 10° W visible
02 Dec 9.6 17:53:59 10° SW 17:56:16 17° W 17:58:34 10° NW visible
03 Dec 9.1 05:07:54 10° NE 05:10:33 20° E 05:13:09 10° SE visible
03 Dec 7.1 06:40:01 10° N 06:43:08 32° WNW 06:46:12 10° SW visible
03 Dec 7.7 17:13:57 10° S 17:17:12 45° W 17:20:31 10° NNW visible
04 Dec 6.3 06:00:57 10° NNE 06:04:24 86° ESE 06:07:47 10° SSW visible
04 Dec 8.5 07:35:55 10° NW 07:36:19 10° WNW 07:36:43 10° WNW visible
04 Dec 9.9 18:09:52 10° WSW 18:11:13 12° W 18:12:34 10° WNW visible
05 Dec 8.4 05:22:22 10° NNE 05:25:24 29° E 05:28:24 10° SSE visible
05 Dec 7.5 06:55:02 10° NNW 06:57:49 23° WNW 07:00:33 10° WSW visible
05 Dec 8.6 17:28:58 10° SSW 17:32:00 30° W 17:35:05 10° NNW visible
06 Dec 9.9 04:45:01 10° ENE 04:46:10 11° E 04:47:19 10° ESE visible
06 Dec 6.3 06:15:41 10° N 06:19:04 62° WNW 06:22:24 10° SSW visible
07 Dec 7.6 05:36:49 10° NNE 05:40:06 42° E 05:43:19 10° S visible
07 Dec 7.9 07:10:02 10° NNW 07:12:18 17° WNW 07:14:34 10° WSW visible
07 Dec 9.3 17:44:00 10° SW 17:46:41 21° W 17:49:23 10° NW visible
08 Dec 9.4 04:58:40 10° NE 05:00:52 16° E 05:03:02 10° SE visible
08 Dec 6.7 06:30:21 10° N 06:33:35 41° WNW 06:36:46 10° SW visible
08 Dec 7.1 17:04:09 10° S 17:07:30 60° W 17:10:54 10° NNW visible
